Location: Aurora Center
(43.5271°N, 98.5894°W)
Time: 02:31:38
(UTC-05:00)

Envisat - Pass Details

Date: 21 June 2024
Orbit: 762 x 764 km, 98.3° (Epoch: 13 July)

Event Time Altitude Azimuth Distance (km) Brightness Sun altitude
Rises 04:58:02 0° 12° (NNE) 3,235 7.3 -8.6°
Reaches altitude 10° 05:00:21 10° 12° (NNE) 2,305 6.4 -8.3°
Maximum altitude 05:05:27 86° 284° (WNW) 770 3.0 -7.6°
Drops below altitude 10° 05:10:30 10° 197° (SSW) 2,288 5.0 -7.0°
Enters shadow 05:11:58 - 197° (SSW) 2,877 5.5 -6.8°
